Location: Sevilla
(37.3933°N, 5.9839°W)
Time: 04:22:41
(UTC+02:00)

Transit 2A Rocket - Pass Details

Date: 30 June 2024
Orbit: 582 x 910 km, 66.7° (Epoch: 15 July)

Event Time Altitude Azimuth Distance (km) Brightness Sun altitude
Rises 04:17:59 0° 344° (NNW) 3,521 9.1 -24.1°
Reaches altitude 10° 04:21:15 10° 1° (N) 2,596 8.6 -23.8°
Maximum altitude 04:25:34 20° 46° (NE) 1,987 7.9 -23.4°
Drops below altitude 10° 04:29:52 10° 92° (E) 2,576 8.1 -23.0°
Sets 04:33:04 0° 109° (ESE) 3,485 8.6 -22.7°
